• In Hungary
  • List of Countries
  • For 7 days
  • Water Temperature
  • Satellite Maps
  • Weather Map
  • News
  • Weather Widgets
  • user-avatar
    Login

    Hourly Weather El Paso

    Today, 16 December, Saturday

    Time Temperature Precipitation Wind Pressure Humidity
    00:00 +6°C° 0 mm 1 mps 661 mmHg 46%
    01:00 +5°C° 0 mm 1 mps 661 mmHg 48%
    02:00 +5°C° 0 mm 1 mps 660 mmHg 50%
    03:00 +4°C° 0 mm 1 mps 660 mmHg 51%
    04:00 +4°C° 0 mm 1 mps 659 mmHg 51%
    05:00 +4°C° 0 mm 1 mps 658 mmHg 52%
    06:00 +4°C° 0 mm 1 mps 658 mmHg 51%
    07:00 +4°C° 0 mm 2 mps 658 mmHg 50%
    08:00 +4°C° 0 mm 2 mps 658 mmHg 49%
    09:00 +6°C° 0 mm 2 mps 658 mmHg 45%
    10:00 +8°C° 0 mm 3 mps 658 mmHg 40%
    11:00 +9°C° 0 mm 3 mps 658 mmHg 36%
    12:00 +10°C° 0 mm 3 mps 657 mmHg 35%
    13:00 +11°C° 0 mm 4 mps 657 mmHg 33%
    14:00 +13°C° 0 mm 4 mps 656 mmHg 32%
    15:00 +12°C° 0 mm 3 mps 656 mmHg 34%
    16:00 +11°C° 0 mm 3 mps 655 mmHg 36%
    17:00 +10°C° 0 mm 2 mps 655 mmHg 37%
    18:00 +10°C° 0 mm 2 mps 656 mmHg 39%
    19:00 +10°C° 0 mm 3 mps 656 mmHg 40%
    20:00 +10°C° 0 mm 3 mps 657 mmHg 42%
    21:00 +10°C° 0 mm 4 mps 657 mmHg 47%
    22:00 +10°C° 0 mm 4 mps 657 mmHg 52%
    23:00 +10°C° 0 mm 4 mps 658 mmHg 57%

    Tomorrow, 17 December, Sunday

    Time Temperature Precipitation Wind Pressure Humidity
    00:00 +9°C° 0 mm 3 mps 658 mmHg 63%
    01:00 +9°C° 0 mm 3 mps 657 mmHg 68%
    02:00 +8°C° 0 mm 2 mps 657 mmHg 73%
    03:00 +8°C° 0 mm 2 mps 657 mmHg 76%
    04:00 +8°C° 0 mm 1 mps 657 mmHg 78%
    05:00 +8°C° 0 mm 1 mps 657 mmHg 80%
    06:00 +8°C° 0 mm 1 mps 658 mmHg 77%
    07:00 +9°C° 0 mm 1 mps 658 mmHg 74%
    08:00 +9°C° 0 mm 1 mps 659 mmHg 71%
    09:00 +9°C° 0.5 mm 2 mps 659 mmHg 68%
    10:00 +10°C° 0.5 mm 2 mps 659 mmHg 65%
    11:00 +12°C° 0.5 mm 2 mps 659 mmHg 62%
    12:00 +11°C° 1.1 mm 3 mps 659 mmHg 65%
    13:00 +10°C° 1.1 mm 3 mps 658 mmHg 69%
    14:00 +10°C° 1.1 mm 3 mps 657 mmHg 72%
    15:00 +9°C° 1.1 mm 3 mps 657 mmHg 75%
    16:00 +9°C° 1.1 mm 2 mps 657 mmHg 79%
    17:00 +8°C° 1.1 mm 2 mps 657 mmHg 82%
    18:00 +8°C° 0.1 mm 2 mps 658 mmHg 84%
    19:00 +9°C° 0.1 mm 1 mps 658 mmHg 85%
    20:00 +9°C° 0.1 mm 1 mps 659 mmHg 86%
    21:00 +9°C° 0.2 mm 1 mps 659 mmHg 87%
    22:00 +8°C° 0.2 mm 2 mps 660 mmHg 87%
    23:00 +8°C° 0.2 mm 2 mps 660 mmHg 87%

    Day after tomorrow, 18 December, Monday

    Time Temperature Precipitation Wind Pressure Humidity
    00:00 +7°C° 0.1 mm 2 mps 660 mmHg 88%
    01:00 +7°C° 0.1 mm 2 mps 660 mmHg 88%
    02:00 +7°C° 0.1 mm 2 mps 660 mmHg 88%
    03:00 +6°C° 0 mm 2 mps 660 mmHg 89%
    04:00 +6°C° 0 mm 2 mps 660 mmHg 89%
    05:00 +6°C° 0 mm 2 mps 660 mmHg 90%
    06:00 +6°C° 0 mm 2 mps 661 mmHg 89%
    07:00 +6°C° 0 mm 2 mps 661 mmHg 88%
    08:00 +6°C° 0 mm 2 mps 662 mmHg 87%
    09:00 +7°C° 0 mm 3 mps 663 mmHg 78%
    10:00 +8°C° 0 mm 4 mps 663 mmHg 68%
    11:00 +10°C° 0 mm 4 mps 663 mmHg 59%
    12:00 +10°C° 0 mm 5 mps 663 mmHg 55%
    13:00 +10°C° 0 mm 5 mps 663 mmHg 51%
    14:00 +11°C° 0 mm 6 mps 662 mmHg 46%
    15:00 +12°C° 0 mm 5 mps 662 mmHg 48%
    16:00 +11°C° 0 mm 4 mps 662 mmHg 49%
    17:00 +11°C° 0 mm 4 mps 662 mmHg 50%
    18:00 +10°C° 0 mm 4 mps 662 mmHg 53%
    19:00 +10°C° 0 mm 4 mps 663 mmHg 55%
    20:00 +9°C° 0 mm 3 mps 663 mmHg 58%
    21:00 +9°C° 0 mm 3 mps 663 mmHg 59%
    22:00 +8°C° 0 mm 3 mps 663 mmHg 60%
    23:00 +8°C° 0 mm 3 mps 663 mmHg 61%

    19 December, Tuesday

    Time Temperature Precipitation Wind Pressure Humidity
    00:00 +7°C° 0 mm 3 mps 663 mmHg 62%
    01:00 +7°C° 0 mm 3 mps 663 mmHg 62%
    02:00 +7°C° 0 mm 3 mps 663 mmHg 63%
    03:00 +6°C° 0 mm 2 mps 663 mmHg 64%
    04:00 +6°C° 0 mm 2 mps 663 mmHg 65%
    05:00 +6°C° 0 mm 2 mps 663 mmHg 66%
    06:00 +6°C° 0 mm 2 mps 663 mmHg 66%
    07:00 +6°C° 0 mm 2 mps 664 mmHg 65%
    08:00 +7°C° 0 mm 1 mps 665 mmHg 64%
    09:00 +9°C° 0 mm 1 mps 665 mmHg 57%
    10:00 +10°C° 0 mm 1 mps 666 mmHg 49%
    11:00 +12°C° 0 mm 1 mps 666 mmHg 42%
    12:00 +13°C° 0 mm 1 mps 666 mmHg 38%
    13:00 +13°C° 0 mm 1 mps 666 mmHg 34%
    14:00 +14°C° 0 mm 1 mps 665 mmHg 30%
    15:00 +14°C° 0 mm 1 mps 665 mmHg 33%
    16:00 +13°C° 0 mm 1 mps 665 mmHg 36%
    17:00 +11°C° 0 mm 0 mps 665 mmHg 39%
    18:00 +11°C° 0 mm 0 mps 665 mmHg 40%
    19:00 +11°C° 0 mm 1 mps 665 mmHg 41%
    20:00 +10°C° 0 mm 1 mps 666 mmHg 43%
    21:00 +10°C° 0 mm 1 mps 665 mmHg 43%
    22:00 +10°C° 0 mm 1 mps 665 mmHg 44%
    23:00 +9°C° 0 mm 1 mps 665 mmHg 44%

    20 December, Wednesday

    Time Temperature Precipitation Wind Pressure Humidity
    00:00 +9°C° 0 mm 1 mps 665 mmHg 46%
    01:00 +8°C° 0 mm 1 mps 664 mmHg 47%
    02:00 +8°C° 0 mm 1 mps 664 mmHg 48%
    03:00 +8°C° 0 mm 1 mps 663 mmHg 49%
    04:00 +7°C° 0 mm 1 mps 663 mmHg 50%
    05:00 +7°C° 0 mm 1 mps 663 mmHg 51%
    06:00 +7°C° 0 mm 1 mps 663 mmHg 51%
    07:00 +8°C° 0 mm 1 mps 663 mmHg 50%
    08:00 +8°C° 0 mm 1 mps 663 mmHg 50%
    09:00 +10°C° 0 mm 1 mps 664 mmHg 44%
    10:00 +12°C° 0 mm 1 mps 664 mmHg 39%
    11:00 +14°C° 0 mm 1 mps 664 mmHg 33%
    12:00 +15°C° 0 mm 2 mps 663 mmHg 32%
    13:00 +15°C° 0 mm 2 mps 662 mmHg 31%
    14:00 +16°C° 0 mm 3 mps 662 mmHg 30%
    15:00 +14°C° 0 mm 3 mps 661 mmHg 32%
    16:00 +14°C° 0 mm 3 mps 660 mmHg 35%
    17:00 +14°C° 0 mm 2 mps 660 mmHg 37%
    18:00 +13°C° 0 mm 2 mps 660 mmHg 39%
    19:00 +12°C° 0 mm 2 mps 659 mmHg 41%
    20:00 +12°C° 0 mm 2 mps 659 mmHg 43%
    21:00 +10°C° 0 mm 2 mps 659 mmHg 43%
    22:00 +10°C° 0 mm 2 mps 659 mmHg 42%
    23:00 +10°C° 0 mm 3 mps 658 mmHg 42%

    21 December, Thursday

    Time Temperature Precipitation Wind Pressure Humidity
    00:00 +10°C° 0 mm 3 mps 658 mmHg 42%
    01:00 +10°C° 0 mm 3 mps 657 mmHg 43%
    02:00 +9°C° 0 mm 3 mps 657 mmHg 43%
    03:00 +9°C° 0 mm 3 mps 657 mmHg 43%
    04:00 +8°C° 0 mm 3 mps 656 mmHg 44%
    05:00 +8°C° 0 mm 3 mps 656 mmHg 44%
    06:00 +8°C° 0 mm 3 mps 656 mmHg 44%
    07:00 +8°C° 0 mm 3 mps 656 mmHg 45%
    08:00 +8°C° 0 mm 3 mps 657 mmHg 45%
    09:00 +10°C° 0 mm 4 mps 657 mmHg 39%
    10:00 +12°C° 0 mm 5 mps 657 mmHg 34%
    11:00 +14°C° 0 mm 6 mps 658 mmHg 28%
    12:00 +15°C° 0 mm 7 mps 657 mmHg 25%
    13:00 +16°C° 0 mm 7 mps 657 mmHg 23%
    14:00 +17°C° 0 mm 8 mps 657 mmHg 20%
    15:00 +16°C° 0 mm 6 mps 657 mmHg 22%
    16:00 +16°C° 0 mm 5 mps 657 mmHg 24%
    17:00 +15°C° 0 mm 4 mps 657 mmHg 26%
    18:00 +14°C° 0 mm 4 mps 657 mmHg 28%
    19:00 +13°C° 0 mm 4 mps 657 mmHg 31%
    20:00 +12°C° 0 mm 4 mps 657 mmHg 33%
    21:00 +12°C° 0 mm 3 mps 657 mmHg 35%
    22:00 +11°C° 0 mm 3 mps 658 mmHg 37%
    23:00 +12°C° 0 mm 2 mps 658 mmHg 38%
    Show more